User: anonymous   Login
Location: Writing-on-Stone Provincial Park
(49.0825°N, 111.6163°W)
Time: 16:40:09
(UTC-06:00)
Language:

BREEZE-M DEB (TANK) - Orbit

View from above orbital plane
View from above orbital plane
View from above satellite
View from above satellite

Ground track
Ground track

The orbit data is extracted from the following two-line orbital elements,

1 29649U 06056B   16243.54239144  .00001863  00000-0  34730-3 0  9993
2 29649  49.5211  86.0748 5385698 340.1617   5.1407  4.98760186173257
Epoch (UTC): 30 August 2016 13:01:02
Eccentricity: 0.5385698
inclination: 49.5211°
perigee height: 299 km
apogee height: 15885 km
right ascension of ascending node: 86.0748°
argument of perigee: 340.1617°
revolutions per day: 4.98760186
mean anomaly at epoch: 5.1407°
orbit number at epoch: 17325

The dashed part of the orbit path shows where the satellite is in the earth's shadow,  

DLR